Location: Cactus School
(34.5700°N, 118.0931°W)
Time: 22:02:32
(UTC-08:00)

Hubble Space Telescope - Visible Passes

Search period start: 25 February 2024 00:00
Search period end: 06 March 2024 00:00
Orbit: 516 x 519 km, 28.5° (Epoch: 25 February)

Date Brightness Start Highest point End Pass type
(mag) Time Alt. Az. Time Alt. Az. Time Alt. Az.
25 Feb 2.3 19:40:51 10° WSW 19:43:17 27° SSW 19:43:17 27° SSW visible
26 Feb 1.7 19:23:23 10° WSW 19:26:58 33° S 19:26:58 33° S visible
27 Feb 1.7 19:05:56 10° WSW 19:09:35 34° S 19:10:37 29° SE visible
28 Feb 1.8 18:48:28 10° WSW 18:52:07 34° S 18:54:15 20° SE visible
28 Feb 3.9 20:29:06 10° WSW 20:29:10 10° WSW 20:29:10 10° WSW visible
29 Feb 1.8 18:31:00 10° WSW 18:34:39 34° S 18:37:53 12° ESE visible
29 Feb 3.3 20:11:43 10° WSW 20:12:48 15° SW 20:12:48 15° SW visible
01 Mar 1.9 18:13:32 10° WSW 18:17:11 34° S 18:20:50 10° ESE visible
01 Mar 2.8 19:54:21 10° WSW 19:56:26 20° SW 19:56:26 20° SW visible
02 Mar 2.6 19:37:00 10° WSW 19:39:57 20° SSW 19:40:06 20° SSW visible
03 Mar 2.8 19:19:41 10° WSW 19:22:25 18° SSW 19:23:48 15° S visible
04 Mar 3.1 19:02:23 10° WSW 19:04:53 16° SSW 19:07:22 10° SSE visible
05 Mar 3.2 18:45:10 10° SW 18:47:19 14° SSW 18:49:28 10° SSE visible
